Location: Titusville
(28.6119°N, 80.8078°W)
Time: 09:14:42
(UTC-05:00)

OTV 5 (USA 277) - Visible Passes

Search period start: 21 January 2019 00:00
Search period end: 31 January 2019 00:00
Orbit: 339 x 349 km, 54.5° (Epoch: 15 January)

Date Brightness Start Highest point End Pass type
(mag) Time Alt. Az. Time Alt. Az. Time Alt. Az.
22 Jan ? 06:23:17 10° SSE 06:24:55 14° ESE 06:26:33 10° E visible
23 Jan ? 06:45:30 10° SSW 06:48:22 73° SE 06:51:16 10° NE visible
24 Jan ? 05:35:53 10° SSE 05:37:22 13° ESE 05:38:52 10° E visible
25 Jan ? 05:58:56 19° SSW 06:00:49 67° SE 06:03:43 10° NE visible
26 Jan ? 06:23:39 20° WNW 06:24:30 23° NW 06:26:54 10° N visible
